ICESAT-2

导读

ICESat-2(冰、云和陆地高程卫星2号)由美国航空航天局(NASA)主导研发,于美国东部时间2018年9月15日发射,是一颗地球观测卫星。卫星搭载先进光子计数激光高度计ATLAS,能够高精度测量冰盖、冰川、海冰等地表高程变化,帮助科学家解析气候变化对冰冻圈的影响,同时可开展全球森林植被高度监测,为地球系统科学研究提供关键观测数据,目前卫星仍在轨运行。

Basic Information
目录编号:
43613
目录名称:
ICESAT-2
国际标识:
2018-070A
轨道中心:
EARTH
卫星名称:
ICESAT-2
卫星全名:
--
卫星状态:
在轨 (已飞行2828 天)
发射日期:
2018-09-15 UTC
国别 :
美国 (US)
星等 :
--
Orbit Information
数据来源 国际轨道数据 AOE轨道数据
星历时间 2026-06-13T04:00:03+0800
7小时前
查看轨道信息
2026-06-10T05:00:00+0800
3天前
查看轨道信息
半长轴 6859.307km 6859.085km
偏心率 0.0005794 0.0005388
轨道倾角 92.007° 92.007°
近地点辐角 115.717° 118.348°
升交点赤经 289.803° 289.003°
平近点角 244.468° 176.985°
近地点 477.195km 477.252km
远地点 485.145km 484.644km
周期 94.228分钟 94.223分钟
每日圈数 15.28208 15.282821
Detailed Information
使用方式:
暂无
2D Orbit Map
3D Orbit Map
Orbit Altitude Analysis Chart
Orbit Inclination Analysis Chart
Orbit Comprehensive Analysis Chart
View Comprehensive Chart